Powrót do katalogu

STARLINK-31770

AktywnyŁącznośćVLEO
NORAD 59601·PAYLOAD·🇺🇸 United States

Wystrzelony Apr 28, 2024 z Cape Canaveral Space Force Station

Loading…

Następne Przeloty (najbliższe 24 godziny)

TLE

ŚwieżeSource: CelesTrak SupGP

Epoka: Sep 15, 2026, 03:07 UTC

1 59601C 24080A   26258.13034722 -.00026590  00000+0 -96288-3 0  2587
2 59601  43.0044  48.3339 0001737 270.0075  24.6022 15.27598461    12

Śledź STARLINK-31770 w czasie rzeczywistym z AllMySat

Download on the App Store